Date,TemperatureHighF,TemperatureAvgF,TemperatureLowF,DewpointHighF,DewpointAvgF,DewpointLowF,HumidityHigh,HumidityAvg,HumidityLow,PressureMaxIn,PressureMinIn,WindSpeedMaxMPH,WindSpeedAvgMPH,GustSpeedMaxMPH,PrecipitationSumIn
2013-1-1,28.0,26.1,24.0,24.0,21.6,19.0,94,83,74,0.00,40.00,5,3,12,0.00
2013-1-2,28.0,27.0,26.0,22.0,21.7,20.0,81,79,77,0.00,40.00,8,6,22,0.00
2013-1-3,30.0,26.1,24.0,22.0,19.5,17.0,94,75,62,0.00,40.00,7,4,22,0.00
2013-1-4,32.0,26.9,24.0,28.0,24.8,22.0,97,91,82,0.00,40.00,3,1,10,0.01
2013-1-5,28.0,26.6,25.0,27.0,25.2,23.0,97,94,88,0.00,40.00,3,1,7,0.01
2013-1-6,36.0,29.2,24.0,32.0,27.3,22.0,100,93,74,0.00,40.00,2,1,4,0.01
2013-1-7,54.0,40.9,31.0,49.0,36.0,31.0,100,84,60,0.00,40.00,6,3,23,0.02
2013-1-8,53.0,42.7,37.0,45.0,39.2,36.0,100,88,61,0.00,40.00,9,2,23,0.01
2013-1-9,43.0,37.3,32.0,41.0,35.4,32.0,99,93,83,0.00,40.00,10,4,20,0.01
2013-1-10,42.0,33.8,29.0,32.0,28.2,24.0,99,81,54,0.00,40.00,5,2,13,0.01
2013-1-11,39.0,30.6,22.0,27.0,22.1,17.0,88,71,39,0.00,40.00,4,2,9,0.00
2013-1-12,36.0,23.5,16.0,23.0,18.6,15.0,93,82,52,0.00,40.00,3,1,7,0.00
2013-1-13,31.0,20.8,13.0,21.0,16.1,10.0,91,82,62,0.00,40.00,3,1,7,0.00
2013-1-14,41.0,26.5,16.0,31.0,20.3,14.0,91,78,54,0.00,40.00,12,4,27,0.00
2013-1-15,43.0,32.9,26.0,33.0,28.7,25.0,97,85,66,0.00,40.00,7,1,16,0.00
2013-1-16,33.0,29.0,24.0,32.0,28.5,23.0,99,98,96,0.00,40.00,4,2,9,0.00
2013-1-17,30.0,27.9,26.0,29.0,25.9,25.0,98,92,82,0.00,40.00,3,2,7,0.00
2013-1-18,41.0,29.1,24.0,33.0,25.7,22.0,97,87,60,0.00,40.00,2,1,4,0.00
2013-1-19,30.0,27.5,24.0,28.0,26.4,23.0,98,95,88,0.00,40.00,2,1,4,0.00
2013-1-20,28.0,26.2,25.0,26.0,24.2,23.0,95,91,83,0.00,40.00,2,1,6,0.00
2013-1-21,27.0,25.3,23.0,24.0,21.7,19.0,95,85,78,0.00,40.00,2,1,5,0.00
2013-1-22,26.0,24.8,24.0,23.0,21.4,19.0,92,86,79,0.00,40.00,3,1,6,0.00
2013-1-23,28.0,25.3,24.0,26.0,23.0,21.0,94,90,80,0.00,40.00,3,2,5,0.00
2013-1-24,41.0,32.1,24.0,35.0,30.6,23.0,100,94,78,0.00,40.00,3,1,5,0.01
2013-1-25,39.0,35.1,33.0,39.0,35.1,33.0,100,100,100,0.00,40.00,2,0,4,0.01
2013-1-26,42.0,34.9,31.0,42.0,33.9,31.0,100,96,78,0.00,40.00,6,2,11,0.01
2013-1-27,42.0,35.6,30.0,35.0,32.7,29.0,100,89,62,0.00,40.00,6,2,14,0.00
2013-1-28,40.0,38.1,33.0,36.0,34.7,33.0,100,87,80,0.00,40.00,9,5,27,0.01
2013-1-29,48.0,43.2,39.0,37.0,35.8,35.0,88,75,62,0.00,40.00,10,6,26,0.01
2013-1-30,49.0,45.8,42.0,41.0,38.4,36.0,80,75,66,0.00,40.00,12,6,23,0.01
2013-1-31,52.0,46.8,38.0,38.0,37.4,36.0,93,70,56,0.00,40.00,9,4,21,0.00
2013-2-1,53.0,40.7,33.0,40.0,35.4,30.0,95,82,60,0.00,40.00,4,2,11,0.00
2013-2-2,49.0,36.3,28.0,38.0,33.2,28.0,98,89,65,0.00,40.00,3,1,7,0.00
2013-2-3,51.0,38.9,28.0,39.0,33.8,28.0,98,83,56,0.00,40.00,4,1,12,0.00
2013-2-4,52.0,39.9,32.0,37.0,34.0,30.0,96,81,53,0.00,40.00,4,1,8,0.00
2013-2-5,51.0,40.2,33.0,43.0,36.6,32.0,97,87,60,0.00,40.00,5,2,14,0.01
2013-2-6,46.0,40.6,36.0,40.0,38.0,35.0,98,90,77,0.00,40.00,6,2,11,0.01
2013-2-7,48.0,38.3,30.0,37.0,33.0,28.0,97,83,46,0.00,40.00,7,2,17,0.00
2013-2-8,49.0,35.4,25.0,30.0,27.3,24.0,95,74,41,0.00,40.00,8,3,19,0.00
2013-2-9,46.0,41.1,37.0,33.0,30.4,27.0,78,65,56,0.00,40.00,13,8,29,0.00
2013-2-10,51.0,36.3,28.0,34.0,30.6,27.0,95,81,50,0.00,40.00,3,1,7,0.00
2013-2-11,48.0,41.9,30.0,36.0,32.1,28.0,92,68,55,0.00,40.00,11,7,26,0.00
2013-2-12,52.0,46.9,43.0,42.0,38.3,36.0,82,72,56,0.00,40.00,9,6,21,0.00
2013-2-13,53.0,48.1,43.0,41.0,37.4,33.0,77,66,48,0.00,40.00,9,5,19,0.00
2013-2-14,54.0,44.7,36.0,40.0,36.6,33.0,94,73,56,0.00,40.00,9,3,18,0.00
2013-2-15,51.0,38.9,31.0,41.0,36.1,30.0,98,90,65,0.00,40.00,4,2,7,0.00
2013-2-16,52.0,40.5,32.0,40.0,35.4,31.0,98,83,60,0.00,40.00,7,4,18,0.01
2013-2-17,43.0,39.2,32.0,32.0,26.3,24.0,77,60,49,0.00,40.00,9,4,22,0.01
2013-2-18,47.0,35.4,30.0,30.0,28.1,26.0,92,76,46,0.00,40.00,5,1,11,0.00
2013-2-19,49.0,36.8,27.0,31.0,28.1,24.0,95,72,37,0.00,40.00,5,2,11,0.00
2013-2-20,46.0,37.5,29.0,36.0,30.3,25.0,97,76,51,0.00,40.00,8,3,16,0.00
2013-2-21,42.0,38.0,34.0,36.0,34.4,32.0,99,87,70,0.00,40.00,9,4,20,0.00
2013-2-22,43.0,40.4,36.0,41.0,36.5,31.0,97,85,70,0.00,40.00,10,4,26,0.03
2013-2-23,43.0,38.2,35.0,33.0,31.2,27.0,89,75,59,0.00,40.00,10,6,25,0.01
2013-2-24,49.0,40.5,35.0,34.0,30.3,28.0,93,68,50,0.00,40.00,6,3,13,0.00
2013-2-25,44.0,37.5,35.0,38.0,34.6,29.0,99,89,70,0.00,40.00,7,4,23,0.03
2013-2-26,46.0,38.5,33.0,35.0,32.3,28.0,93,79,53,0.00,40.00,4,2,11,0.01
2013-2-27,52.0,39.8,30.0,41.0,35.2,29.0,97,85,59,0.00,40.00,5,2,10,0.00
2013-2-28,50.0,43.5,41.0,50.0,43.1,40.0,99,98,95,0.00,40.00,5,1,9,0.03
2013-3-1,60.0,51.5,41.0,51.0,45.7,40.0,99,81,57,0.00,40.00,4,2,11,0.01
2013-3-2,57.0,44.9,37.0,47.0,41.1,33.0,99,87,58,0.00,40.00,6,3,18,0.00
2013-3-3,48.0,41.5,37.0,33.0,27.6,25.0,78,58,41,0.00,40.00,6,4,12,0.00
2013-3-4,50.0,39.8,26.0,28.0,25.1,22.0,92,58,32,0.00,40.00,9,5,20,0.00
2013-3-5,38.0,33.8,29.0,36.0,30.8,25.0,97,88,76,0.00,40.00,4,1,7,0.00
2013-3-6,41.0,37.2,33.0,39.0,35.8,33.0,99,94,77,0.00,40.00,6,3,17,0.01
2013-3-7,52.0,41.2,32.0,37.0,33.3,29.0,95,75,45,0.00,40.00,5,2,11,0.01
2013-3-8,56.0,39.6,28.0,33.0,30.4,28.0,96,73,33,0.00,40.00,6,3,16,0.00
2013-3-9,59.0,42.3,28.0,32.0,27.3,21.0,95,62,23,0.00,40.00,8,3,23,0.00
2013-3-10,57.0,45.1,36.0,40.0,32.9,25.0,72,63,34,0.00,40.00,9,4,23,0.00
2013-3-11,55.0,48.3,42.0,45.0,42.3,40.0,96,80,61,0.00,40.00,5,2,12,0.00
2013-3-12,61.0,50.0,41.0,48.0,42.6,40.0,98,78,55,0.00,40.00,10,3,24,0.00
2013-3-13,64.0,51.8,43.0,48.0,43.1,39.0,88,73,50,0.00,40.00,4,2,10,0.00
2013-3-14,66.0,51.1,42.0,48.0,41.6,33.0,94,72,31,0.00,40.00,8,3,18,0.00
2013-3-15,62.0,51.4,45.0,47.0,44.0,41.0,98,77,46,0.00,40.00,5,2,11,0.00
2013-3-16,49.0,44.7,35.0,45.0,40.5,32.0,96,85,73,0.00,40.00,8,4,17,0.02
2013-3-17,41.0,37.5,34.0,35.0,31.7,29.0,93,79,65,0.00,40.00,7,5,24,0.02
2013-3-18,49.0,41.1,33.0,33.0,31.5,30.0,88,69,48,0.00,40.00,9,5,19,0.00
2013-3-19,44.0,36.2,29.0,36.0,31.7,28.0,98,85,57,0.00,40.00,6,2,15,0.01
2013-3-20,49.0,39.7,35.0,41.0,35.5,29.0,99,86,54,0.00,40.00,12,4,39,0.06
2013-3-21,44.0,37.1,34.0,35.0,32.1,28.0,95,82,62,0.00,40.00,9,5,20,0.02
2013-3-22,45.0,36.2,32.0,32.0,27.9,25.0,94,72,44,0.00,40.00,7,4,19,0.01
2013-3-23,47.0,35.9,30.0,31.0,27.2,24.0,92,72,40,0.00,40.00,4,2,10,0.00
2013-3-24,49.0,37.6,29.0,32.0,28.1,23.0,96,72,38,0.00,40.00,7,3,16,0.00
2013-3-25,55.0,41.8,30.0,35.0,30.3,26.0,93,67,35,0.00,40.00,6,2,20,0.00
2013-3-26,55.0,44.1,36.0,39.0,35.3,33.0,87,72,43,0.00,40.00,4,2,11,0.00
2013-3-27,60.0,48.1,38.0,46.0,40.3,36.0,93,75,52,0.00,40.00,5,2,9,0.00
2013-3-28,61.0,49.5,40.0,45.0,41.8,38.0,94,76,47,0.00,40.00,4,2,9,0.00
2013-3-29,66.0,54.0,45.0,46.0,43.4,41.0,90,69,44,0.00,40.00,5,2,10,0.00
2013-3-30,70.0,53.4,38.0,47.0,41.2,-99.9,95,71,40,0.00,40.00,6,3,15,0.00
2013-3-31,72.0,57.0,40.0,45.0,39.8,35.0,89,58,27,0.00,40.00,6,3,14,0.00
2013-4-1,64.0,56.4,48.0,47.0,45.4,43.0,83,67,49,0.00,40.00,12,6,24,0.00
2013-4-2,64.0,55.9,47.0,47.0,43.9,42.0,87,64,46,0.00,40.00,8,4,22,0.00
2013-4-3,67.0,54.1,39.0,47.0,42.9,38.0,95,68,41,0.00,40.00,5,2,10,0.00
2013-4-4,58.0,52.2,49.0,53.0,48.0,44.0,95,85,68,0.00,40.00,5,2,15,0.01
2013-4-5,55.0,51.0,47.0,49.0,46.2,42.0,98,84,67,0.00,40.00,7,3,15,0.02
2013-4-6,49.0,46.1,41.0,46.0,42.4,40.0,99,87,76,0.00,40.00,6,3,17,0.03
2013-4-7,49.0,42.0,37.0,42.0,39.0,36.0,99,89,75,0.00,40.00,11,5,31,0.04
2013-4-8,50.0,43.8,38.0,38.0,35.3,32.0,96,72,60,0.00,40.00,10,6,23,0.01
2013-4-9,59.0,46.0,34.0,41.0,35.8,31.0,93,70,34,0.00,40.00,5,2,12,0.00
2013-4-10,57.0,48.5,42.0,50.0,42.0,33.0,96,78,57,0.00,40.00,9,4,28,0.01
2013-4-11,53.0,46.6,40.0,37.0,34.5,32.0,85,63,54,0.00,40.00,9,6,18,0.01
2013-4-12,56.0,42.8,32.0,41.0,35.1,31.0,94,75,42,0.00,40.00,6,3,21,0.00
2013-4-13,47.0,41.4,36.0,41.0,32.9,28.0,87,72,54,0.00,40.00,10,5,25,0.01
2013-4-14,50.0,42.4,36.0,37.0,33.6,30.0,93,72,48,0.00,40.00,8,4,18,0.01
2013-4-15,50.0,41.0,34.0,37.0,33.5,31.0,90,75,51,0.00,40.00,7,2,15,0.00
2013-4-16,52.0,42.3,33.0,37.0,33.5,27.0,94,73,42,0.00,40.00,5,2,12,0.00
2013-4-17,57.0,43.8,31.0,37.0,31.3,28.0,91,65,33,0.00,40.00,6,3,15,0.00
2013-4-18,57.0,50.1,45.0,44.0,37.9,34.0,78,62,49,0.00,40.00,9,4,22,0.00
2013-4-19,56.0,51.4,48.0,48.0,45.4,43.0,93,80,68,0.00,40.00,7,4,17,0.01
2013-4-20,56.0,49.7,45.0,45.0,41.0,37.0,95,73,49,0.00,40.00,8,4,20,0.01
2013-4-21,54.0,49.1,42.0,44.0,38.6,36.0,93,67,60,0.00,40.00,8,5,24,0.00
2013-4-22,60.0,47.1,35.0,40.0,31.8,24.0,96,62,25,0.00,40.00,5,2,12,0.00
2013-4-23,67.0,48.4,33.0,32.0,28.7,24.0,83,52,20,0.00,40.00,5,2,13,0.00
2013-4-24,70.0,52.4,34.0,38.0,31.7,29.0,83,51,22,0.00,40.00,6,3,17,0.00
2013-4-25,74.0,61.5,46.0,41.0,36.9,32.0,66,42,27,0.00,40.00,7,4,20,0.00
2013-4-26,79.0,64.2,47.0,44.0,36.2,28.0,70,40,15,0.00,40.00,6,3,16,0.00
2013-4-27,71.0,60.3,46.0,41.0,35.1,28.0,69,42,21,0.00,40.00,9,4,30,0.00
2013-4-28,62.0,54.9,50.0,46.0,41.5,38.0,85,62,44,0.00,40.00,9,4,20,0.00
2013-4-29,56.0,50.3,46.0,46.0,38.7,31.0,89,66,38,0.00,40.00,10,5,26,0.01
2013-4-30,55.0,47.2,38.0,32.0,29.4,27.0,79,51,36,0.00,40.00,4,3,19,0.00
2013-5-1,64.0,47.2,31.0,36.0,31.7,28.0,88,59,28,0.00,40.00,5,3,15,0.00
2013-5-2,74.0,55.9,36.0,42.0,35.2,31.0,87,50,24,0.00,40.00,5,2,12,0.00
2013-5-3,79.0,60.2,42.0,45.0,40.7,37.0,87,52,24,0.00,40.00,5,2,14,0.00
2013-5-4,77.0,62.6,44.0,45.0,37.3,28.0,90,47,18,0.00,40.00,5,3,17,0.00
2013-5-5,80.0,62.5,44.0,43.0,38.4,35.0,73,44,24,0.00,40.00,4,2,14,0.00
2013-5-6,86.0,68.8,48.0,48.0,42.9,37.0,76,44,17,0.00,40.00,7,3,16,0.00
2013-5-7,77.0,69.9,59.0,50.0,47.7,46.0,62,46,35,0.00,40.00,9,6,22,0.00
2013-5-8,79.0,66.8,54.0,54.0,48.9,47.0,77,54,33,0.00,40.00,8,6,24,0.00
2013-5-9,84.0,65.9,52.0,57.0,49.6,45.0,86,58,28,0.00,40.00,8,3,24,0.00
2013-5-10,90.0,66.8,47.0,53.0,42.6,-99.9,88,50,25,0.00,40.00,6,2,13,0.00
2013-5-11,86.0,70.8,57.0,57.0,49.3,-99.9,67,49,33,0.00,40.00,4,2,11,0.00
2013-5-12,76.0,65.8,58.0,59.0,53.5,50.0,80,64,45,0.00,40.00,6,2,18,0.00
2013-5-13,68.0,58.8,51.0,53.0,48.5,41.0,87,69,44,0.00,40.00,8,3,22,0.00
2013-5-14,67.0,52.7,40.0,43.0,36.9,27.0,94,60,23,0.00,40.00,4,2,14,0.00
2013-5-15,60.0,51.7,44.0,46.0,42.3,36.0,88,70,58,0.00,40.00,5,2,12,0.00
2013-5-16,68.0,49.3,45.0,55.0,28.8,-99.9,95,80,50,0.00,40.00,6,2,17,0.01
2013-5-17,62.0,53.5,48.0,48.0,41.3,-99.9,96,71,45,0.00,40.00,6,2,18,0.01
2013-5-18,58.0,51.6,44.0,45.0,43.8,42.0,94,75,59,0.00,40.00,7,2,16,0.00
2013-5-19,61.0,53.8,45.0,47.0,44.1,43.0,94,71,51,0.00,40.00,8,4,20,0.00
2013-5-20,75.0,57.9,41.0,49.0,44.3,38.0,89,64,37,0.00,40.00,4,2,11,0.00
2013-5-21,58.0,49.4,40.0,45.0,39.5,36.0,89,69,47,0.00,40.00,9,4,21,0.01
2013-5-22,47.0,42.8,40.0,41.0,38.6,36.0,96,84,76,0.00,40.00,6,3,15,0.01
2013-5-23,52.0,45.8,40.0,46.0,42.7,40.0,98,89,75,0.00,40.00,5,2,10,0.01
2013-5-24,60.0,50.2,43.0,46.0,42.5,41.0,98,77,51,0.00,40.00,8,3,19,0.01
2013-5-25,66.0,53.7,41.0,47.0,42.6,38.0,93,69,43,0.00,40.00,7,2,16,0.01
2013-5-26,65.0,55.3,50.0,53.0,48.6,45.0,98,80,48,0.00,40.00,8,2,18,0.00
2013-5-27,55.0,49.8,43.0,54.0,48.8,42.0,98,96,88,0.00,40.00,2,1,6,0.02
2013-5-28,63.0,54.5,46.0,50.0,47.1,45.0,99,78,51,0.00,40.00,7,2,19,0.01
2013-5-29,58.0,51.7,48.0,54.0,48.5,45.0,99,90,66,0.00,40.00,9,2,22,0.03
2013-5-30,61.0,52.3,44.0,46.0,42.8,40.0,96,71,50,0.00,40.00,7,3,18,0.01
2013-5-31,71.0,55.6,39.0,47.0,43.9,38.0,97,68,41,0.00,40.00,4,2,13,0.00
2013-6-1,76.0,59.1,42.0,50.0,47.1,41.0,97,68,37,0.00,40.00,4,2,10,0.00
2013-6-2,71.0,59.4,49.0,49.0,47.1,45.0,94,66,43,0.00,40.00,9,4,22,0.00
2013-6-3,79.0,60.5,45.0,50.0,45.2,41.0,88,60,26,0.00,40.00,6,3,16,0.00
2013-6-4,82.0,64.9,45.0,50.0,45.6,41.0,87,53,28,0.00,40.00,6,2,15,0.00
2013-6-5,86.0,69.4,51.0,55.0,47.8,41.0,83,51,20,0.00,40.00,5,2,13,0.00
2013-6-6,86.0,71.2,56.0,59.0,50.7,44.0,82,52,24,0.00,40.00,7,3,17,0.00
2013-6-7,79.0,70.8,63.0,52.0,43.4,33.0,63,38,22,0.00,40.00,8,4,20,0.00
2013-6-8,82.0,68.3,49.0,52.0,38.1,31.0,68,37,17,0.00,40.00,7,3,18,0.00
2013-6-9,75.0,66.0,56.0,48.0,41.1,32.0,66,42,21,0.00,40.00,5,3,17,0.00
2013-6-10,72.0,60.9,48.0,49.0,42.2,38.0,69,52,30,0.00,40.00,6,3,18,0.00
2013-6-11,62.0,53.9,49.0,46.0,41.4,39.0,86,63,47,0.00,40.00,7,4,17,0.00
2013-6-12,64.0,55.0,46.0,47.0,43.3,41.0,91,66,43,0.00,40.00,7,2,18,0.00
2013-6-13,63.0,55.0,48.0,47.0,44.3,41.0,87,68,52,0.00,40.00,7,3,18,0.00
2013-6-14,74.0,60.3,52.0,49.0,44.9,41.0,83,58,34,0.00,40.00,5,2,14,0.00
2013-6-15,83.0,64.1,44.0,52.0,47.5,42.0,96,60,29,0.00,40.00,5,2,14,0.00
2013-6-16,80.0,66.8,55.0,59.0,51.5,45.0,85,60,36,0.00,40.00,6,2,18,0.00
2013-6-17,78.0,65.1,55.0,55.0,50.7,45.0,88,61,40,0.00,40.00,6,2,15,0.00
2013-6-18,71.0,60.2,52.0,49.0,44.9,39.0,85,59,34,0.00,40.00,8,3,17,0.00
2013-6-19,65.0,56.6,52.0,49.0,44.4,42.0,87,64,51,0.00,40.00,7,4,15,0.00
2013-6-20,61.0,53.1,49.0,49.0,47.0,45.0,91,80,61,0.00,40.00,7,4,16,0.00
2013-6-22,78.0,69.4,51.0,57.0,51.1,46.0,83,53,36,0.00,40.00,4,2,9,0.00
2013-6-23,70.0,62.7,58.0,60.0,56.1,51.0,97,79,56,0.00,40.00,4,1,10,0.00
2013-6-24,65.0,58.8,54.0,57.0,53.0,49.0,98,81,56,0.00,40.00,6,2,15,0.01
2013-6-25,64.0,57.6,54.0,60.0,55.4,53.0,98,93,74,0.00,40.00,3,1,7,0.01
2013-6-26,58.0,55.2,54.0,57.0,54.7,54.0,98,98,96,0.00,40.00,1,0,4,0.00
2013-7-1,95.0,82.9,65.0,69.0,65.0,61.0,88,56,38,0.00,40.00,5,3,13,0.00
2013-7-2,97.0,81.3,67.0,71.0,59.9,45.0,81,52,25,0.00,40.00,6,2,14,0.00
2013-7-3,86.0,77.4,64.0,53.0,43.9,34.0,67,32,19,0.00,40.00,7,4,17,0.00
2013-7-4,77.0,69.3,61.0,50.0,45.5,36.0,61,43,30,0.00,40.00,11,6,24,0.00
2013-7-5,70.0,63.5,57.0,50.0,48.6,47.0,69,58,49,0.00,40.00,10,7,23,0.00
2013-7-6,81.0,64.8,50.0,54.0,50.6,45.0,83,62,34,0.00,40.00,6,3,18,0.00
2013-7-7,84.0,68.5,55.0,61.0,54.1,50.0,85,62,32,0.00,40.00,7,3,16,0.00
2013-7-8,85.0,69.0,60.0,53.0,50.6,46.0,70,54,27,0.00,40.00,5,3,16,0.00
2013-7-9,90.0,71.6,51.0,60.0,52.7,47.0,86,54,33,0.00,40.00,4,2,9,0.00
2013-7-10,85.0,70.2,55.0,60.0,45.8,-99.9,84,48,26,0.00,40.00,7,2,23,0.00
2013-7-11,77.0,66.5,52.0,48.0,41.8,33.0,71,43,19,0.00,40.00,8,4,17,0.00
2013-7-12,74.0,62.1,49.0,49.0,43.5,38.0,80,53,32,0.00,40.00,6,2,16,0.00
2013-7-13,83.0,63.7,46.0,52.0,44.0,38.0,77,52,23,0.00,40.00,5,2,9,0.00
2013-7-14,89.0,68.0,45.0,52.0,45.4,40.0,87,49,21,0.00,40.00,5,2,13,0.00
2013-7-15,87.0,67.8,48.0,52.0,45.9,38.0,76,48,27,0.00,40.00,4,2,11,0.00
2013-7-16,80.0,66.3,52.0,63.0,52.3,46.0,81,62,33,0.00,40.00,5,2,12,0.00
2013-7-17,85.0,72.8,61.0,60.0,50.0,41.0,81,48,23,0.00,40.00,7,3,16,0.00
2013-7-18,91.0,72.6,55.0,54.0,46.7,40.0,66,42,24,0.00,40.00,6,3,16,0.00
2013-7-19,93.0,70.7,46.0,58.0,47.4,39.0,76,46,19,0.00,40.00,6,2,17,0.00
2013-7-20,91.0,71.8,57.0,60.0,48.0,-99.9,60,47,21,0.00,40.00,7,4,17,0.00
2013-7-21,88.0,72.4,50.0,53.0,47.0,37.0,65,42,27,0.00,40.00,7,4,21,0.00
2013-7-22,87.0,84.3,76.0,47.0,44.9,41.0,29,25,23,0.00,40.00,6,5,20,0.00
2013-7-23,83.0,63.5,48.0,58.0,45.5,38.0,71,52,41,0.00,40.00,2,1,6,0.00
2013-7-26,92.0,80.4,73.0,51.0,48.0,41.0,43,33,17,0.00,40.00,7,4,24,0.00
2013-7-27,82.0,74.3,66.0,44.0,41.0,37.0,41,31,23,0.00,40.00,8,5,19,0.00
2013-7-28,76.0,70.5,64.0,49.0,47.0,44.0,57,44,33,0.00,40.00,8,5,22,0.00
2013-7-29,83.0,67.2,46.0,57.0,48.3,43.0,93,55,26,0.00,40.00,6,3,13,0.00
2013-7-30,86.0,73.5,58.0,54.0,49.2,44.0,68,44,23,0.00,40.00,7,4,16,0.00
2013-7-31,84.0,69.9,59.0,61.0,53.5,46.0,69,56,43,0.00,40.00,6,2,18,0.00
2013-8-1,71.0,65.3,61.0,54.0,52.5,50.0,70,63,54,0.00,40.00,7,4,21,0.00
2013-8-2,60.0,59.0,57.0,50.0,48.9,47.0,72,69,66,0.00,40.00,4,2,13,0.00
2013-8-4,88.0,78.6,68.0,61.0,57.8,55.0,64,50,36,0.00,40.00,3,2,8,0.00
2013-8-5,91.0,74.8,56.0,62.0,55.2,50.0,84,54,28,0.00,40.00,5,2,13,0.00
2013-8-6,90.0,73.1,54.0,61.0,49.2,40.0,79,47,20,0.00,40.00,4,2,10,0.00
2013-8-7,90.0,79.0,64.0,53.0,49.0,42.0,45,36,20,0.00,40.00,6,4,16,0.00
2013-8-8,85.0,74.2,63.0,60.0,55.5,51.0,71,53,36,0.00,40.00,6,4,17,0.00
2013-8-9,87.0,71.0,59.0,64.0,58.8,53.0,93,66,42,0.00,40.00,8,2,25,0.00
2013-8-10,81.0,66.4,58.0,63.0,59.2,56.0,97,79,50,0.00,40.00,7,2,21,0.00
2013-8-11,81.0,69.1,60.0,58.0,54.2,49.0,89,62,33,0.00,40.00,6,3,14,0.00
2013-8-12,82.0,64.8,50.0,59.0,53.7,48.0,95,70,41,0.00,40.00,6,2,13,0.00
2013-9-1,86.0,70.7,55.0,61.0,56.2,51.0,91,63,38,0.00,40.00,3,2,11,0.00
2013-9-2,85.0,70.9,58.0,58.0,54.8,52.0,84,58,39,0.00,40.00,7,4,16,0.00
2013-9-3,81.0,70.0,61.0,59.0,54.8,52.0,83,59,39,0.00,40.00,7,3,17,0.00
2013-9-4,80.0,66.7,56.0,58.0,54.5,51.0,85,67,43,0.00,40.00,9,4,21,0.00
2013-9-5,72.0,65.6,56.0,57.0,55.1,53.0,92,70,58,0.00,40.00,10,6,22,0.01
2013-9-6,69.0,60.4,55.0,59.0,54.6,52.0,97,82,64,0.00,40.00,6,3,17,0.02
2013-9-7,78.0,58.4,47.0,59.0,50.7,-99.9,97,81,48,0.00,40.00,3,1,11,0.01
2013-9-8,84.0,65.7,52.0,59.0,55.6,51.0,96,74,33,0.00,40.00,4,2,9,0.00
2013-9-9,88.0,69.3,50.0,62.0,56.2,49.0,95,67,32,0.00,40.00,4,2,11,0.00
2013-9-10,88.0,66.4,55.0,63.0,55.4,51.0,94,72,29,0.00,40.00,5,2,14,0.00
2013-9-11,91.0,67.6,55.0,58.0,54.8,51.0,91,67,28,0.00,40.00,4,2,13,0.00
2013-9-12,81.0,63.0,53.0,61.0,54.3,51.0,92,75,50,0.00,40.00,3,1,6,0.00
2013-9-14,-200.0,0.0,200.0,-99.9,-99.9,-99.9,0,0,100,0.00,40.00,1,1,4,0.00
2013-9-16,69.0,63.9,53.0,52.0,50.7,50.0,89,64,52,0.00,40.00,5,2,17,0.00
2013-9-17,66.0,57.5,52.0,51.0,47.8,44.0,88,71,47,0.00,40.00,6,2,15,0.00
2013-9-18,56.0,52.2,49.0,49.0,47.0,44.0,89,82,71,0.00,40.00,4,2,10,0.00
2013-9-19,76.0,54.2,39.0,47.0,43.2,38.0,96,71,33,0.00,40.00,4,2,11,0.00
2013-9-20,76.0,56.5,42.0,54.0,46.3,40.0,93,72,37,0.00,40.00,6,2,21,0.00
2013-9-21,68.0,56.3,50.0,54.0,48.1,-99.9,97,79,49,0.00,40.00,6,2,14,0.00
2013-9-22,60.0,53.9,50.0,53.0,49.8,46.0,97,86,61,0.00,40.00,4,2,11,0.02
2013-9-23,59.0,54.7,51.0,53.0,49.9,47.0,97,84,71,0.00,40.00,6,2,14,0.01
2013-9-24,60.0,52.1,47.0,51.0,47.0,43.0,97,84,58,0.00,40.00,6,2,13,0.01
2013-9-25,58.0,50.7,45.0,44.0,43.0,42.0,93,75,58,0.00,40.00,8,3,19,0.00
2013-9-26,62.0,50.2,42.0,44.0,41.7,39.0,92,74,50,0.00,40.00,7,3,17,0.00
2013-9-27,59.0,51.0,44.0,51.0,45.9,40.0,99,83,58,0.00,40.00,6,2,15,0.01
2013-9-28,63.0,53.1,48.0,61.0,50.6,-99.9,99,95,78,0.00,40.00,3,1,9,0.09
2013-9-29,51.0,49.6,48.0,50.0,48.3,46.0,99,94,86,0.00,40.00,3,2,11,0.08
2013-9-30,50.0,48.5,47.0,47.0,44.8,43.0,93,86,78,0.00,40.00,6,4,19,0.08
2013-10-1,51.0,44.4,40.0,45.0,42.1,39.0,98,93,79,0.00,40.00,3,2,6,0.03
2013-10-2,55.0,44.2,37.0,49.0,41.2,37.0,98,89,71,0.00,40.00,7,2,17,0.01
2013-10-3,60.0,47.8,39.0,43.0,40.5,38.0,96,78,49,0.00,40.00,6,2,15,0.00
2013-10-4,64.0,44.8,33.0,46.0,39.7,32.0,98,84,46,0.00,40.00,4,2,10,0.00
2013-10-5,67.0,48.8,36.0,47.0,41.6,35.0,97,79,45,0.00,40.00,3,2,11,0.00
2013-10-6,71.0,51.0,39.0,48.0,43.3,38.0,94,78,42,0.00,40.00,3,2,7,0.00
2013-10-7,55.0,50.3,44.0,50.0,45.8,40.0,96,85,56,0.00,40.00,4,2,13,0.01
2013-10-8,51.0,46.8,40.0,48.0,43.8,39.0,97,89,77,0.00,40.00,5,2,13,0.01
2013-10-9,58.0,44.4,33.0,48.0,40.2,32.0,98,87,52,0.00,40.00,2,1,5,0.01
2013-10-10,60.0,49.4,42.0,45.0,42.0,38.0,94,77,50,0.00,40.00,9,3,18,0.00
2013-10-11,58.0,46.9,40.0,45.0,41.4,39.0,97,83,52,0.00,40.00,2,1,7,0.00
2013-10-12,53.0,45.8,40.0,47.0,41.5,-99.9,97,88,71,0.00,40.00,3,1,9,0.00
2013-10-13,63.0,46.4,36.0,43.0,40.1,35.0,98,81,43,0.00,40.00,3,1,7,0.00
2013-10-14,63.0,44.2,33.0,45.0,38.1,33.0,97,82,40,0.00,40.00,4,2,13,0.00
2013-10-15,61.0,43.1,31.0,42.0,36.7,30.0,97,80,43,0.00,40.00,5,2,12,0.00
2013-10-16,64.0,44.3,33.0,43.0,37.8,32.0,97,81,44,0.00,40.00,3,2,11,0.00
2013-10-17,64.0,47.3,33.0,44.0,39.5,32.0,97,78,42,0.00,40.00,3,2,10,0.00
2013-10-18,64.0,45.0,33.0,43.0,39.0,32.0,97,81,41,0.00,40.00,5,2,13,0.00
2013-10-19,67.0,47.2,35.0,47.0,38.2,-99.9,97,77,47,0.00,40.00,3,2,9,0.00
2013-10-20,69.0,50.1,33.0,51.0,42.5,32.0,96,78,45,0.00,40.00,3,2,7,0.00
2013-10-21,70.0,50.0,40.0,48.0,43.9,39.0,97,82,41,0.00,40.00,4,2,10,0.00
2013-10-22,70.0,50.9,39.0,48.0,44.1,38.0,97,80,42,0.00,40.00,3,2,9,0.00
2013-10-23,69.0,49.2,37.0,49.0,44.0,37.0,98,84,47,0.00,40.00,3,2,9,0.00
2013-10-24,67.0,48.9,39.0,50.0,44.6,38.0,99,86,51,0.00,40.00,3,2,9,0.00
2013-10-25,67.0,49.5,38.0,51.0,45.1,38.0,99,87,52,0.00,40.00,3,1,8,0.00
2013-10-26,64.0,45.7,36.0,50.0,40.1,-99.9,100,87,60,0.00,40.00,3,1,8,0.00
2013-10-27,53.0,46.2,39.0,46.0,43.1,39.0,99,89,64,0.00,40.00,9,2,22,0.00
2013-10-28,55.0,44.9,33.0,46.0,30.5,-99.9,98,63,35,0.00,40.00,5,2,16,0.00
2013-10-29,31.0,29.0,26.0,30.0,27.6,24.0,94,93,92,0.00,40.00,3,2,5,0.00
2013-11-2,-200.0,0.0,200.0,-99.9,-99.9,-99.9,0,0,100,0.00,40.00,6,6,19,0.00
2013-11-3,46.0,41.8,38.0,39.0,37.3,33.0,97,84,61,0.00,40.00,6,3,14,0.01
2013-11-4,43.0,39.8,36.0,41.0,39.2,36.0,99,97,93,0.00,40.00,3,1,6,0.01
2013-11-5,47.0,42.8,40.0,47.0,42.7,40.0,100,99,99,0.00,40.00,2,1,5,0.00
2013-11-6,49.0,46.5,44.0,49.0,46.4,43.0,100,100,99,0.00,40.00,3,1,7,0.01
2013-11-7,48.0,44.2,41.0,47.0,42.3,40.0,100,93,78,0.00,40.00,8,3,27,0.04
2013-11-8,49.0,45.6,44.0,46.0,42.7,41.0,95,89,73,0.00,40.00,7,4,14,0.01
2013-11-10,47.0,45.0,44.0,44.0,43.1,43.0,96,94,89,0.00,40.00,1,0,4,0.00
2013-11-11,48.0,45.0,43.0,43.0,41.2,40.0,96,86,76,0.00,40.00,6,4,14,0.00
2013-11-12,51.0,46.5,43.0,47.0,44.5,41.0,99,92,82,0.00,40.00,5,2,13,0.00
2013-11-13,60.0,48.5,40.0,47.0,41.6,38.0,99,79,45,0.00,40.00,4,2,11,0.00
2013-11-14,50.0,42.0,34.0,40.0,36.7,33.0,98,82,61,0.00,40.00,6,3,12,0.00
2013-11-15,46.0,43.4,41.0,39.0,36.9,33.0,87,78,64,0.00,40.00,9,6,24,0.01
2013-11-16,45.0,43.4,40.0,42.0,36.6,33.0,93,77,67,0.00,40.00,6,4,21,0.02
2013-11-17,50.0,46.2,41.0,46.0,41.5,37.0,99,83,70,0.00,40.00,5,2,12,0.01
2013-11-18,51.0,47.2,42.0,48.0,44.6,40.0,100,91,74,0.00,40.00,6,2,13,0.01
2013-11-19,54.0,47.7,42.0,53.0,44.8,35.0,100,89,74,0.00,40.00,7,4,14,0.02
2013-11-20,44.0,35.4,24.0,33.0,23.1,10.0,96,64,26,0.00,40.00,6,2,14,0.01
2013-11-21,39.0,26.9,17.0,18.0,14.0,12.0,84,60,32,0.00,40.00,7,3,17,0.00
2013-11-22,38.0,26.2,16.0,18.0,15.6,13.0,90,66,40,0.00,40.00,7,3,20,0.00
2013-11-23,39.0,29.9,24.0,20.0,17.3,15.0,77,59,39,0.00,40.00,7,4,14,0.00
2013-11-24,42.0,28.0,19.0,22.0,19.8,17.0,92,74,40,0.00,40.00,4,2,7,0.00
2013-11-25,42.0,28.8,19.0,25.0,22.3,18.0,93,78,46,0.00,40.00,4,2,8,0.00
2013-11-26,41.0,29.4,23.0,28.0,24.6,21.0,94,83,54,0.00,40.00,2,1,6,0.00
2013-11-27,38.0,30.5,26.0,29.0,26.8,25.0,96,86,65,0.00,40.00,2,1,6,0.00
2013-11-28,43.0,30.2,23.0,30.0,26.1,22.0,95,85,58,0.00,40.00,3,2,7,0.00
2013-11-29,38.0,31.2,24.0,34.0,28.7,23.0,96,90,78,0.00,40.00,2,1,5,0.00
2013-11-30,49.0,41.2,36.0,42.0,36.6,-99.9,99,87,71,0.00,40.00,5,2,10,0.00
2013-12-1,55.0,50.9,42.0,50.0,47.8,41.0,100,89,81,0.00,40.00,9,5,26,0.10
2013-12-2,49.0,39.6,33.0,48.0,36.2,29.0,97,87,59,0.00,40.00,6,3,20,0.09
2013-12-3,36.0,30.7,23.0,32.0,26.5,17.0,98,85,51,0.00,40.00,3,1,9,0.01
2013-12-4,32.0,21.6,15.0,18.0,14.4,8.0,92,76,38,0.00,40.00,5,2,12,0.00
2013-12-5,24.0,16.9,10.0,14.0,11.2,6.0,90,78,64,0.00,40.00,4,2,9,0.00
2013-12-6,19.0,18.0,17.0,16.0,13.8,10.0,91,83,70,0.00,40.00,6,4,11,0.00
2013-12-7,22.0,16.5,8.0,16.0,7.0,0.0,89,67,40,0.00,40.00,4,2,10,0.00
2013-12-8,18.0,9.4,0.0,8.0,3.5,-5.0,86,77,59,0.00,40.00,4,1,9,0.00
2013-12-9,38.0,20.3,4.0,27.0,14.0,0.0,85,76,62,0.00,40.00,9,3,19,0.00
2013-12-10,40.0,34.4,27.0,31.0,28.2,25.0,97,78,62,0.00,40.00,8,2,19,0.00
2013-12-11,34.0,27.4,22.0,27.0,25.0,21.0,98,90,74,0.00,40.00,3,1,9,0.00
2013-12-12,32.0,26.6,20.0,31.0,23.7,19.0,97,88,68,0.00,40.00,3,1,7,0.00
2013-12-13,51.0,36.6,29.0,42.0,34.3,28.0,99,92,68,0.00,40.00,7,1,13,0.00
2013-12-14,44.0,35.9,32.0,40.0,33.4,-99.9,100,94,82,0.00,40.00,4,2,10,0.00
2013-12-15,55.0,46.0,32.0,42.0,37.5,32.0,100,74,61,0.00,40.00,9,5,20,0.00
2013-12-23,53.0,46.2,42.0,48.0,37.7,31.0,84,72,62,0.00,40.00,6,4,22,0.01
2013-12-24,46.0,36.0,28.0,34.0,30.4,27.0,94,81,58,0.00,40.00,4,2,13,0.01
2013-12-25,40.0,30.0,24.0,31.0,27.7,23.0,97,91,67,0.00,40.00,2,1,4,0.00
2013-12-26,41.0,30.3,24.0,33.0,28.1,23.0,98,92,72,0.00,40.00,3,1,5,0.00
2013-12-27,50.0,33.1,25.0,43.0,30.9,25.0,99,92,60,0.00,40.00,4,1,15,0.00
2013-12-28,47.0,35.0,29.0,37.0,28.8,-99.9,96,83,64,0.00,40.00,4,1,9,0.00
2013-12-29,39.0,30.4,26.0,35.0,29.3,26.0,98,96,84,0.00,40.00,3,1,7,0.00
2013-12-30,39.0,33.6,31.0,36.0,32.9,31.0,100,96,83,0.00,40.00,3,1,9,0.00
2013-12-31,52.0,41.0,32.0,40.0,33.8,32.0,100,79,46,0.00,40.00,5,2,13,0.00
2014-1-1,45.0,36.0,29.0,38.0,33.9,29.0,99,93,75,0.00,40.00,3,1,7,0.00
2014-1-2,46.0,36.9,34.0,40.0,35.8,34.0,100,96,74,0.00,40.00,3,1,6,0.00